Regional Weather Roundup
Issued by NWS

Home | Current Version | Previous Version | Graphics & Text | Print | Product List | Glossary On
Versions: 1 2 3 4 5 6 7 8 9 10 11 12 13 14 15 16 17 18 19 20 21 22 23 24 25 26 27 28 29 30 31 32 33 34 35 36 37 38 39 40 41 42 43 44 45 46 47 48 49 50
000
ASUS43 KFSD 220202
RWRSD

WEATHER ROUNDUP FOR SOUTH DAKOTA
NATIONAL WEATHER SERVICE SIOUX FALLS SD
800 PM CST TUE NOV 21 2017

NOTE: "FAIR" INDICATES FEW OR NO CLOUDS BELOW 12,000 FEET WITH NO
SIGNIFICANT WEATHER AND/OR OBSTRUCTIONS TO VISIBILITY.


SDZ001>005-009-010-012>017-220300-
NORTHWEST AND NORTH CENTRAL SOUTH DAKOTA

CITY           SKY/WX    TMP DP  RH WIND       PRES   REMARKS
BUFFALO          N/A     24   9  52 E6        30.14F WCI  17
FAITH            N/A     19   4  51 SE8       30.27R WCI   9
MOBRIDGE       CLOUDY    12   3  67 NE3       30.30F
$$

SDZ012>016-024>037-041>051-057-063-072>074-220300-
SOUTHWEST AND SOUTH CENTRAL SOUTH DAKOTA

CITY           SKY/WX    TMP DP  RH WIND       PRES   REMARKS
RAPID CTY ARPT CLOUDY    22  16  78 SW5       30.24F WCI  16
PIERRE         CLOUDY    15   5  64 CALM      30.34F
CUSTER         CLOUDY    33  23  66 W9G18     30.17F WCI  25
ELLSWORTH AFB  CLOUDY    24  19  82 S6        30.23S WCI  17
PHILIP         CLOUDY    17  11  77 E3        30.31F
PINE RIDGE     CLOUDY    20  17  88 E3        30.25F
SPEARFISH      FAIR      25  21  86 S5        30.19F WCI  19
WINNER         FAIR      16   9  74 S6        30.36S WCI   7
$$

SDZ004>011-016>023-039-040-220300-
NORTHEAST SOUTH DAKOTA

CITY           SKY/WX    TMP DP  RH WIND       PRES   REMARKS
ABERDEEN       NOT AVBL
WATERTOWN      CLOUDY    16   8  71 NW5       30.32F WCI   9
BROOKINGS      CLOUDY    15   8  73 CALM      30.35S
SISSETON         N/A     15   8  73 NW7       30.35F WCI   5
$$

SDZ017-020-022-023-036>040-048>070-220300-
SOUTHEAST SOUTH DAKOTA

CITY           SKY/WX    TMP DP  RH WIND       PRES   REMARKS
SIOUX FALLS    CLOUDY    18   8  65 NW5       30.37S WCI  11
HURON          CLOUDY    10   5  80 W7        30.39S WCI  -1
CHAMBERLAIN    CLOUDY    19  12  74 CALM      30.37S
MITCHELL       CLOUDY    17   7  64 W6        30.40S WCI   9
YANKTON        CLOUDY    18   8  65 NW3       30.38F
$$

ABBREVIATIONS USED IN REMARKS
   TC - TEMPERATURE IN CELSIUS
  WCI - WIND CHILL INDEX
   HX - HEAT INDEX
  VSB - VISIBILITY




USA.gov is the U.S. government's official web portal to all federal, state and local government web resources and services.